Time,TemperatureF,DewpointF,PressureIn,WindDirection,WindDirectionDegrees,WindSpeedMPH,WindSpeedGustMPH,Humidity,HourlyPrecipIn,Conditions,Clouds,dailyrainin,SoftwareType,DateUTC
2013-06-09 00:00:00,61.2,51.0,29.77,NNW,338,0.0,-999.0,70,-99.99,,,0.00,weatherlink.com 1.10,2013-06-09 07:00:00,
2013-06-09 00:15:00,60.4,51.0,29.78,NNW,337,1.0,-999.0,72,-99.99,,,0.00,weatherlink.com 1.10,2013-06-09 07:15:00,
2013-06-09 00:31:00,59.5,51.0,29.78,NW,311,2.0,-999.0,74,-99.99,,,0.00,weatherlink.com 1.10,2013-06-09 07:31:00,
2013-06-09 00:46:00,58.7,51.0,29.78,NW,311,2.0,-999.0,76,-99.99,,,0.00,weatherlink.com 1.10,2013-06-09 07:46:00,
2013-06-09 01:01:00,58.0,51.0,29.78,NW,311,2.0,-999.0,78,-99.99,,,0.00,weatherlink.com 1.10,2013-06-09 08:01:00,
2013-06-09 01:16:00,57.3,51.0,29.78,NW,324,1.0,-999.0,80,-99.99,,,0.00,weatherlink.com 1.10,2013-06-09 08:16:00,
2013-06-09 01:31:00,56.9,51.0,29.77,NW,308,3.0,-999.0,81,-99.99,,,0.00,weatherlink.com 1.10,2013-06-09 08:31:00,
2013-06-09 01:46:00,56.6,51.0,29.78,NW,309,0.0,-999.0,82,-99.99,,,0.00,weatherlink.com 1.10,2013-06-09 08:46:00,
2013-06-09 02:01:00,56.5,51.0,29.78,NW,310,0.0,-999.0,83,-99.99,,,0.00,weatherlink.com 1.10,2013-06-09 09:01:00,
2013-06-09 02:16:00,56.3,51.0,29.78,NNW,330,1.0,-999.0,83,-99.99,,,0.00,weatherlink.com 1.10,2013-06-09 09:16:00,
2013-06-09 02:31:00,56.2,52.0,29.78,NW,324,1.0,-999.0,84,-99.99,,,0.00,weatherlink.com 1.10,2013-06-09 09:31:00,
2013-06-09 03:01:00,56.2,52.0,29.78,NW,309,1.0,-999.0,84,-99.99,,,0.00,weatherlink.com 1.10,2013-06-09 10:01:00,
2013-06-09 03:16:00,56.2,52.0,29.79,NW,316,0.0,-999.0,84,-99.99,,,0.00,weatherlink.com 1.10,2013-06-09 10:16:00,
2013-06-09 03:46:00,56.3,52.0,29.79,NW,317,0.0,-999.0,85,-99.99,,,0.00,weatherlink.com 1.10,2013-06-09 10:46:00,
2013-06-09 04:01:00,56.3,52.0,29.78,NW,315,2.0,-999.0,85,-99.99,,,0.00,weatherlink.com 1.10,2013-06-09 11:01:00,
2013-06-09 04:16:00,56.3,52.0,29.78,NW,314,2.0,-999.0,85,-99.99,,,0.00,weatherlink.com 1.10,2013-06-09 11:16:00,
2013-06-09 04:31:00,56.3,52.0,29.78,NW,313,3.0,-999.0,85,-99.99,,,0.00,weatherlink.com 1.10,2013-06-09 11:31:00,
2013-06-09 04:46:00,56.3,52.0,29.78,NW,313,2.0,-999.0,85,-99.99,,,0.00,weatherlink.com 1.10,2013-06-09 11:46:00,
2013-06-09 05:01:00,56.3,52.0,29.78,NW,313,0.0,-999.0,85,-99.99,,,0.00,weatherlink.com 1.10,2013-06-09 12:01:00,
2013-06-09 05:16:00,56.5,52.0,29.78,NW,313,3.0,-999.0,85,-99.99,,,0.00,weatherlink.com 1.10,2013-06-09 12:16:00,
2013-06-09 05:31:00,56.5,52.0,29.79,NW,313,1.0,-999.0,84,-99.99,,,0.00,weatherlink.com 1.10,2013-06-09 12:31:00,
2013-06-09 05:46:00,56.5,52.0,29.79,NW,313,1.0,-999.0,84,-99.99,,,0.00,weatherlink.com 1.10,2013-06-09 12:46:00,
2013-06-09 06:01:00,56.5,52.0,29.80,NW,323,0.0,-999.0,84,-99.99,,,0.00,weatherlink.com 1.10,2013-06-09 13:01:00,
2013-06-09 06:16:00,56.6,52.0,29.80,NW,321,0.0,-999.0,84,-99.99,,,0.00,weatherlink.com 1.10,2013-06-09 13:16:00,
2013-06-09 06:46:00,57.2,52.0,29.80,NW,321,0.0,-999.0,83,-99.99,,,0.00,weatherlink.com 1.10,2013-06-09 13:46:00,
2013-06-09 07:16:00,58.4,53.0,29.81,NNE,12,0.0,-999.0,81,-99.99,,,0.00,weatherlink.com 1.10,2013-06-09 14:16:00,
2013-06-09 07:33:00,58.9,52.0,29.82,NW,315,0.0,-999.0,79,-99.99,,,0.00,weatherlink.com 1.10,2013-06-09 14:33:00,
2013-06-09 07:46:00,59.0,52.0,29.82,NNW,342,3.0,-999.0,78,-99.99,,,0.00,weatherlink.com 1.10,2013-06-09 14:46:00,
2013-06-09 08:16:00,59.5,53.0,29.82,NW,320,0.0,-999.0,78,-99.99,,,0.00,weatherlink.com 1.10,2013-06-09 15:16:00,
2013-06-09 08:31:00,59.9,53.0,29.82,NW,317,4.0,-999.0,78,-99.99,,,0.00,weatherlink.com 1.10,2013-06-09 15:31:00,
2013-06-09 08:46:00,60.2,53.0,29.82,NW,321,3.0,-999.0,76,-99.99,,,0.00,weatherlink.com 1.10,2013-06-09 15:46:00,
2013-06-09 09:01:00,60.5,53.0,29.82,NW,317,3.0,-999.0,76,-99.99,,,0.00,weatherlink.com 1.10,2013-06-09 16:01:00,
2013-06-09 09:16:00,61.0,53.0,29.82,NW,315,4.0,-999.0,76,-99.99,,,0.00,weatherlink.com 1.10,2013-06-09 16:16:00,
2013-06-09 09:31:00,62.1,53.0,29.82,NW,315,5.0,-999.0,73,-99.99,,,0.00,weatherlink.com 1.10,2013-06-09 16:31:00,
2013-06-09 09:46:00,62.7,54.0,29.82,NW,323,4.0,-999.0,72,-99.99,,,0.00,weatherlink.com 1.10,2013-06-09 16:46:00,
2013-06-09 10:02:00,63.5,54.0,29.83,NW,321,2.0,-999.0,70,-99.99,,,0.00,weatherlink.com 1.10,2013-06-09 17:02:00,
2013-06-09 10:17:00,64.3,54.0,29.82,NW,318,3.0,-999.0,69,-99.99,,,0.00,weatherlink.com 1.10,2013-06-09 17:17:00,
2013-06-09 10:32:00,64.5,54.0,29.82,NNW,327,5.0,-999.0,69,-99.99,,,0.00,weatherlink.com 1.10,2013-06-09 17:32:00,
2013-06-09 10:47:00,64.5,54.0,29.82,NW,321,4.0,-999.0,68,-99.99,,,0.00,weatherlink.com 1.10,2013-06-09 17:47:00,
2013-06-09 11:01:00,64.8,54.0,29.83,NW,319,4.0,-999.0,68,-99.99,,,0.00,weatherlink.com 1.10,2013-06-09 18:01:00,
2013-06-09 11:17:00,65.5,54.0,29.83,NNW,336,3.0,-999.0,67,-99.99,,,0.00,weatherlink.com 1.10,2013-06-09 18:17:00,
2013-06-09 11:32:00,65.8,54.0,29.83,NW,308,9.0,-999.0,66,-99.99,,,0.00,weatherlink.com 1.10,2013-06-09 18:32:00,
2013-06-09 11:47:00,66.0,54.0,29.84,NW,321,3.0,-999.0,66,-99.99,,,0.00,weatherlink.com 1.10,2013-06-09 18:47:00,
2013-06-09 12:02:00,66.1,54.0,29.84,NW,318,7.0,-999.0,66,-99.99,,,0.00,weatherlink.com 1.10,2013-06-09 19:02:00,
2013-06-09 12:17:00,66.6,54.0,29.84,NW,309,4.0,-999.0,65,-99.99,,,0.00,weatherlink.com 1.10,2013-06-09 19:17:00,
2013-06-09 12:32:00,66.4,54.0,29.84,NW,317,7.0,-999.0,65,-99.99,,,0.00,weatherlink.com 1.10,2013-06-09 19:32:00,
2013-06-09 12:47:00,67.1,55.0,29.84,NW,319,5.0,-999.0,65,-99.99,,,0.00,weatherlink.com 1.10,2013-06-09 19:47:00,
2013-06-09 13:02:00,67.3,55.0,29.85,NW,315,5.0,-999.0,65,-99.99,,,0.00,weatherlink.com 1.10,2013-06-09 20:02:00,
2013-06-09 13:17:00,66.9,55.0,29.85,NW,325,4.0,-999.0,65,-99.99,,,0.00,weatherlink.com 1.10,2013-06-09 20:17:00,
2013-06-09 13:32:00,67.1,54.0,29.84,NW,323,5.0,-999.0,64,-99.99,,,0.00,weatherlink.com 1.10,2013-06-09 20:32:00,
2013-06-09 13:47:00,67.1,54.0,29.83,NW,325,3.0,-999.0,63,-99.99,,,0.00,weatherlink.com 1.10,2013-06-09 20:47:00,
2013-06-09 14:02:00,67.9,54.0,29.83,NNW,328,5.0,-999.0,62,-99.99,,,0.00,weatherlink.com 1.10,2013-06-09 21:02:00,
2013-06-09 14:17:00,68.4,54.0,29.83,NW,321,3.0,-999.0,61,-99.99,,,0.00,weatherlink.com 1.10,2013-06-09 21:17:00,
2013-06-09 14:32:00,68.4,54.0,29.83,NW,318,7.0,-999.0,61,-99.99,,,0.00,weatherlink.com 1.10,2013-06-09 21:32:00,
2013-06-09 14:47:00,68.4,55.0,29.82,NW,309,3.0,-999.0,62,-99.99,,,0.00,weatherlink.com 1.10,2013-06-09 21:47:00,
2013-06-09 15:02:00,68.4,54.0,29.82,NNW,333,2.0,-999.0,60,-99.99,,,0.00,weatherlink.com 1.10,2013-06-09 22:02:00,
2013-06-09 15:17:00,68.9,54.0,29.82,NW,315,9.0,-999.0,60,-99.99,,,0.00,weatherlink.com 1.10,2013-06-09 22:17:00,
2013-06-09 15:32:00,68.4,54.0,29.82,NW,321,4.0,-999.0,60,-99.99,,,0.00,weatherlink.com 1.10,2013-06-09 22:32:00,
2013-06-09 15:47:00,68.4,54.0,29.82,NNW,327,4.0,-999.0,61,-99.99,,,0.00,weatherlink.com 1.10,2013-06-09 22:47:00,
2013-06-09 16:03:00,68.9,54.0,29.81,NW,323,3.0,-999.0,59,-99.99,,,0.00,weatherlink.com 1.10,2013-06-09 23:03:00,
2013-06-09 16:18:00,69.3,54.0,29.81,NW,309,5.0,-999.0,59,-99.99,,,0.00,weatherlink.com 1.10,2013-06-09 23:18:00,
2013-06-09 16:33:00,69.1,54.0,29.80,NNW,327,2.0,-999.0,59,-99.99,,,0.00,weatherlink.com 1.10,2013-06-09 23:33:00,
2013-06-09 16:48:00,68.3,54.0,29.80,WNW,303,4.0,-999.0,61,-99.99,,,0.00,weatherlink.com 1.10,2013-06-09 23:48:00,
2013-06-09 17:02:00,67.9,54.0,29.80,NW,314,3.0,-999.0,62,-99.99,,,0.00,weatherlink.com 1.10,2013-06-10 00:02:00,
2013-06-09 17:17:00,67.6,54.0,29.81,NW,312,4.0,-999.0,62,-99.99,,,0.00,weatherlink.com 1.10,2013-06-10 00:17:00,
2013-06-09 17:32:00,67.8,54.0,29.81,NW,315,2.0,-999.0,61,-99.99,,,0.00,weatherlink.com 1.10,2013-06-10 00:32:00,
2013-06-09 17:47:00,67.4,53.0,29.80,WNW,298,3.0,-999.0,61,-99.99,,,0.00,weatherlink.com 1.10,2013-06-10 00:47:00,
2013-06-09 18:02:00,66.4,53.0,29.81,WNW,302,3.0,-999.0,62,-99.99,,,0.00,weatherlink.com 1.10,2013-06-10 01:02:00,
2013-06-09 18:17:00,65.5,53.0,29.80,NW,317,1.0,-999.0,64,-99.99,,,0.00,weatherlink.com 1.10,2013-06-10 01:17:00,
2013-06-09 18:32:00,65.0,53.0,29.81,NW,318,4.0,-999.0,65,-99.99,,,0.00,weatherlink.com 1.10,2013-06-10 01:32:00,
2013-06-09 18:47:00,64.3,53.0,29.82,West,280,2.0,-999.0,66,-99.99,,,0.00,weatherlink.com 1.10,2013-06-10 01:47:00,
2013-06-09 19:02:00,63.4,53.0,29.82,NW,315,0.0,-999.0,68,-99.99,,,0.00,weatherlink.com 1.10,2013-06-10 02:02:00,
2013-06-09 19:17:00,62.9,53.0,29.82,WNW,283,3.0,-999.0,69,-99.99,,,0.00,weatherlink.com 1.10,2013-06-10 02:17:00,
2013-06-09 19:32:00,62.0,52.0,29.81,NW,304,3.0,-999.0,70,-99.99,,,0.00,weatherlink.com 1.10,2013-06-10 02:32:00,
2013-06-09 19:47:00,61.5,52.0,29.80,NNW,335,1.0,-999.0,71,-99.99,,,0.00,weatherlink.com 1.10,2013-06-10 02:47:00,
2013-06-09 20:03:00,60.7,52.0,29.80,NW,311,2.0,-999.0,73,-99.99,,,0.00,weatherlink.com 1.10,2013-06-10 03:03:00,
2013-06-09 20:18:00,60.4,52.0,29.80,NNW,327,3.0,-999.0,73,-99.99,,,0.00,weatherlink.com 1.10,2013-06-10 03:18:00,
2013-06-09 20:33:00,59.8,52.0,29.80,WNW,284,3.0,-999.0,75,-99.99,,,0.00,weatherlink.com 1.10,2013-06-10 03:33:00,
2013-06-09 20:48:00,59.3,52.0,29.81,NNW,329,4.0,-999.0,76,-99.99,,,0.00,weatherlink.com 1.10,2013-06-10 03:48:00,
2013-06-09 21:03:00,59.2,52.0,29.82,NW,304,3.0,-999.0,77,-99.99,,,0.00,weatherlink.com 1.10,2013-06-10 04:03:00,
2013-06-09 21:18:00,59.0,52.0,29.81,NW,315,2.0,-999.0,77,-99.99,,,0.00,weatherlink.com 1.10,2013-06-10 04:18:00,
2013-06-09 21:33:00,58.7,52.0,29.82,WNW,292,5.0,-999.0,77,-99.99,,,0.00,weatherlink.com 1.10,2013-06-10 04:33:00,
2013-06-09 21:48:00,58.4,52.0,29.82,NW,317,2.0,-999.0,78,-99.99,,,0.00,weatherlink.com 1.10,2013-06-10 04:48:00,
2013-06-09 22:03:00,58.3,52.0,29.82,NW,311,1.0,-999.0,79,-99.99,,,0.00,weatherlink.com 1.10,2013-06-10 05:03:00,
2013-06-09 22:18:00,58.0,52.0,29.84,NNW,331,0.0,-999.0,80,-99.99,,,0.00,weatherlink.com 1.10,2013-06-10 05:18:00,
2013-06-09 22:33:00,57.8,52.0,29.85,NW,311,0.0,-999.0,81,-99.99,,,0.00,weatherlink.com 1.10,2013-06-10 05:33:00,
2013-06-09 22:48:00,57.6,52.0,29.84,NW,311,3.0,-999.0,81,-99.99,,,0.00,weatherlink.com 1.10,2013-06-10 05:48:00,
2013-06-09 23:03:00,57.5,52.0,29.83,NW,311,0.0,-999.0,82,-99.99,,,0.00,weatherlink.com 1.10,2013-06-10 06:03:00,
2013-06-09 23:18:00,57.2,52.0,29.82,NW,311,3.0,-999.0,82,-99.99,,,0.00,weatherlink.com 1.10,2013-06-10 06:18:00,
2013-06-09 23:33:00,57.2,52.0,29.84,West,272,0.0,-999.0,82,-99.99,,,0.00,weatherlink.com 1.10,2013-06-10 06:33:00,
2013-06-09 23:48:00,57.2,52.0,29.84,West,268,0.0,-999.0,82,-99.99,,,0.00,weatherlink.com 1.10,2013-06-10 06:48:00,